Location: Newark
(6.1731°S, 35.7419°E)
Time: 14:33:21
(UTC+00:00)

Altair - Pass Details

Date: 18 February 2020
Orbit: 1501 x 1682 km, 47.2° (Epoch: 31 March)

Event Time Altitude Azimuth Distance (km) Brightness Sun altitude
Rises 19:06:53 0° 210° (SSW) 4,650 10.6 -45.5°
Reaches altitude 10° 19:10:06 10° 204° (SSW) 3,659 9.8 -46.2°
Enters shadow 19:13:54 26° 189° (S) 2,600 8.8 -47.1°
